sat.trackr.live / text

‹ back to catalog

STARLINK-5789

NORAD 56003 · 2023-042T

PAYLOAD ACTIVE UNKNOWN

§ Identity

Operator
Country
US
Launch date
2023-03-24
Launch site
AFETR
Launch vehicle
Mass (kg)
RCS (m²)

Purposes: comms

External: N2YO · Heavens-Above · Gunter

§ Orbital elements

Epoch: 2026-05-24T23:27:23.591232Z

Period
94.27 min
Inclination
43.0040°
Eccentricity
0.0001794
Mean motion
15.27576098 rev/d
Perigee alt
481.8 km
Apogee alt
484.3 km
Semi-major
6,861.2 km
B*
2.1655e-5
RAAN
349.0223°
Arg perigee
246.5987°
Mean anomaly
113.4677°
Rev number
17,453

§ Raw data

STARLINK-57891 56003U 23042T   26144.97735638  .00000334  00000+0  21655-4 0  99922 56003  43.0040 349.0223 0001794 246.5987 113.4677 15.27576098174531

JSON: /api/v1/satellites/56003 · /tle

For live sub-satellite position, see the globe view (requires WebGL).

§ Visibility from observer

Set your observer location to see the next 7 days of passes ≥ 10°. The values pass through the URL so the page stays shareable.

No JS? Fill the form by hand. The geolocation button needs JavaScript.